Hourly Data Report for March 05, 2017

OTTAWA INTL A
ONTARIO

45°19'00.000" N
75°40'00.000" W
114.90 m
6106001
71628
YOW

Download Data

Hourly Data (March 2017)
Hourly Data Report for March 5, 2017
TIME
LST
Temp Definition
°C
Dew Point Definition
°C
Rel Hum Definition
%
Precip. Amount Definition
mm

Wind Dir Definition
10's deg

Wind Spd Definition
km/h
Visibility Definition
km
Stn Press Definition
kPa
Hmdx Definition


Wind Chill Definition


Weather Definition


00:00 -16.3 -22.2 61   33 16 24.1 102.66   -25 LegendNANA
01:00 -16.7 -22.2 63   32 15 24.1 102.68   -25 Clear
02:00 -17.5 -22.3 67   31 14 24.1 102.68   -26 LegendNANA
03:00 -17.0 -22.9 61   35 16 24.1 102.68   -26 LegendNANA
04:00 -17.6 -22.7 65   32 14 24.1 102.73   -26 Clear
05:00 -17.9 -22.5 68   31 9 24.1 102.80   -24 LegendNANA
06:00 -20.2 -23.6 75   24 10 24.1 102.78   -27 LegendNANA
07:00 -20.3 -23.4 77   27 8 24.1 102.83   -27 Clear
08:00 -18.6 -22.5 72   27 11 24.1 102.88   -26 LegendNANA
09:00 -16.4 -22.5 60   29 10 24.1 102.87   -23 LegendNANA
10:00 -15.4 -22.3 56   25 10 24.1 102.82   -22 Clear
11:00 -13.7 -22.3 49   26 12 24.1 102.77   -20 LegendNANA
12:00 -11.9 -21.6 45   23 5 24.1 102.67   -15 LegendNANA
13:00 -10.5 -21.4 41   27 4 24.1 102.56   -13 Mainly Clear
14:00 -9.4 -22.6 34   36 2 24.1 102.42   -11 LegendNANA
15:00 -8.6 -23.3 30   22 7 24.1 102.33   -12 LegendNANA
16:00 -8.0 -24.4 26   23 5 24.1 102.28   -11 Mainly Clear
17:00 -7.6 -23.2 28   36 2 24.1 102.24   -9 LegendNANA
18:00 -8.4 -19.5 41   11 5 24.1 102.21   -11 LegendNANA
19:00 -8.8 -19.6 42   11 4 24.1 102.19   -11 Mainly Clear
20:00 -9.4 -19.6 44   11 4 24.1 102.16   -12 LegendNANA
21:00 -10.0 -20.7 42   10 9 24.1 102.10   -15 LegendNANA
22:00 -10.6 -19.6 48   12 9 24.1 102.07   -16 Mostly Cloudy
23:00 -10.5 -18.8 51   11 7 24.1 102.01   -15 LegendNANA

Notes on Data Quality.

Legend

  • E = Estimated
  • M = Missing
  • NA = Not Available*
  • [empty] = Indicates an unobserved value
Date modified: